TimeEST,TemperatureF,Dew PointF,Humidity,Sea Level PressureIn,VisibilityMPH,Wind Direction,Wind SpeedMPH,Gust SpeedMPH,PrecipitationIn,Events,Conditions,WindDirDegrees,DateUTC
12:25 AM,32.0,30.2,93,30.24,6.0,West,3.5,-,N/A,,Scattered Clouds,260,2011-12-18 05:25:00
12:54 AM,30.9,28.9,92,30.25,6.0,WSW,4.6,-,N/A,,Partly Cloudy,250,2011-12-18 05:54:00
1:54 AM,30.9,28.9,92,30.24,5.0,WSW,4.6,-,N/A,,Clear,250,2011-12-18 06:54:00
2:54 AM,30.0,28.0,92,30.25,6.0,WSW,3.5,-,N/A,,Clear,250,2011-12-18 07:54:00
3:54 AM,28.0,27.0,96,30.24,4.0,Calm,Calm,-,N/A,,Clear,0,2011-12-18 08:54:00
4:13 AM,26.6,26.6,100,30.23,1.5,Calm,Calm,-,N/A,,Clear,0,2011-12-18 09:13:00
4:20 AM,28.4,26.6,93,30.23,1.0,Calm,Calm,-,N/A,,Mist,0,2011-12-18 09:20:00
4:24 AM,28.4,26.6,93,30.23,2.0,Calm,Calm,-,N/A,,Partly Cloudy,0,2011-12-18 09:24:00
4:32 AM,28.4,26.6,93,30.24,3.0,Calm,Calm,-,N/A,,Clear,0,2011-12-18 09:32:00
4:54 AM,28.0,27.0,96,30.26,2.5,Calm,Calm,-,N/A,,Clear,0,2011-12-18 09:54:00
5:05 AM,26.6,26.6,100,30.23,1.5,Calm,Calm,-,N/A,,Clear,0,2011-12-18 10:05:00
5:14 AM,26.6,26.6,100,30.23,2.0,Calm,Calm,-,N/A,,Clear,0,2011-12-18 10:14:00
5:22 AM,26.6,24.8,93,30.23,1.8,Calm,Calm,-,N/A,,Clear,0,2011-12-18 10:22:00
5:44 AM,26.6,24.8,93,30.23,0.8,Calm,Calm,-,N/A,,Clear,0,2011-12-18 10:44:00
5:54 AM,26.1,26.1,100,30.25,1.0,Calm,Calm,-,N/A,,Clear,0,2011-12-18 10:54:00
6:01 AM,24.8,24.8,100,30.24,0.5,Calm,Calm,-,N/A,Fog,Light Freezing Fog,0,2011-12-18 11:01:00
6:20 AM,26.6,24.8,93,30.25,0.8,Calm,Calm,-,N/A,,Clear,0,2011-12-18 11:20:00
6:37 AM,24.8,24.8,100,30.25,2.0,Calm,Calm,-,N/A,,Clear,0,2011-12-18 11:37:00
6:54 AM,25.0,23.0,92,30.27,3.0,Calm,Calm,-,N/A,,Clear,0,2011-12-18 11:54:00
7:54 AM,24.1,23.0,96,30.27,3.0,Calm,Calm,-,N/A,,Clear,0,2011-12-18 12:54:00
8:31 AM,24.8,23.0,93,30.24,3.0,Calm,Calm,-,N/A,,Scattered Clouds,0,2011-12-18 13:31:00
8:54 AM,27.0,26.1,96,30.27,4.0,Calm,Calm,-,N/A,,Clear,0,2011-12-18 13:54:00
9:54 AM,30.9,28.9,92,30.29,5.0,West,5.8,-,N/A,,Clear,260,2011-12-18 14:54:00
10:54 AM,35.1,30.9,85,30.30,8.0,WSW,6.9,-,N/A,,Clear,240,2011-12-18 15:54:00
11:54 AM,37.9,30.9,76,30.28,10.0,SW,5.8,-,N/A,,Clear,220,2011-12-18 16:54:00
12:54 PM,41.0,32.0,70,30.24,10.0,SW,8.1,-,N/A,,Clear,230,2011-12-18 17:54:00
2:54 PM,46.0,34.0,63,30.17,10.0,SW,9.2,-,N/A,,Clear,220,2011-12-18 19:54:00
3:54 PM,46.9,33.1,59,30.17,10.0,SW,10.4,-,N/A,,Clear,220,2011-12-18 20:54:00
4:54 PM,45.0,34.0,65,30.15,10.0,SSW,6.9,-,N/A,,Clear,210,2011-12-18 21:54:00
5:54 PM,43.0,33.1,68,30.13,10.0,South,4.6,-,N/A,,Clear,190,2011-12-18 22:54:00
6:54 PM,41.0,33.1,73,30.12,10.0,SSW,5.8,-,N/A,,Clear,200,2011-12-18 23:54:00
7:54 PM,41.0,34.0,76,30.11,10.0,SSW,5.8,-,N/A,,Clear,200,2011-12-19 00:54:00
8:54 PM,41.0,35.1,79,30.09,10.0,SSW,9.2,-,N/A,,Clear,210,2011-12-19 01:54:00
9:54 PM,39.9,35.1,83,30.07,10.0,SW,8.1,-,N/A,,Clear,220,2011-12-19 02:54:00
10:54 PM,41.0,35.1,79,30.05,10.0,SSW,8.1,-,N/A,,Clear,210,2011-12-19 03:54:00
11:54 PM,41.0,34.0,76,30.04,10.0,SSW,6.9,-,N/A,,Clear,210,2011-12-19 04:54:00